Time,TemperatureF,DewpointF,PressureIn,WindDirection,WindDirectionDegrees,WindSpeedMPH,WindSpeedGustMPH,Humidity,HourlyPrecipIn,Conditions,Clouds,dailyrainin,SolarRadiationWatts/m^2,SoftwareType,DateUTC
2013-06-08 00:00:00,65.0,61.0,29.89,NW,315,0.0,0.0,87,0.00,,---,0.00,0.00,VWS V14.00,2013-06-08 05:00:00,
2013-06-08 00:04:00,64.9,60.9,29.89,NW,315,0.0,0.0,87,0.00,,---,0.00,0.00,VWS V14.00,2013-06-08 05:04:00,
2013-06-08 00:08:00,64.9,61.3,29.89,NW,315,0.0,0.0,88,0.00,,---,0.00,0.00,VWS V14.00,2013-06-08 05:08:00,
2013-06-08 00:12:00,64.8,61.2,29.89,NW,315,0.0,0.0,88,0.00,,---,0.00,0.00,VWS V14.00,2013-06-08 05:12:00,
2013-06-08 00:16:00,64.7,61.1,29.88,NW,315,0.0,0.0,88,0.00,,---,0.00,0.00,VWS V14.00,2013-06-08 05:16:00,
2013-06-08 00:20:00,64.6,61.3,29.88,NW,315,0.0,0.0,89,0.00,,---,0.00,0.00,VWS V14.00,2013-06-08 05:20:00,
2013-06-08 00:25:00,64.6,61.3,29.88,NW,315,0.0,0.0,89,0.00,,---,0.00,0.00,VWS V14.00,2013-06-08 05:25:00,
2013-06-08 00:29:00,64.5,61.2,29.88,NW,315,0.0,0.0,89,0.00,,---,0.00,0.00,VWS V14.00,2013-06-08 05:29:00,
2013-06-08 00:30:00,64.5,61.2,29.87,NW,315,0.0,0.0,89,0.00,,---,0.00,0.00,VWS V14.00,2013-06-08 05:30:00,
2013-06-08 00:33:00,64.4,60.8,29.87,NW,315,0.0,0.0,88,0.00,,---,0.00,0.00,VWS V14.00,2013-06-08 05:33:00,
2013-06-08 00:37:00,64.3,61.0,29.87,NW,315,0.0,0.0,89,0.00,,---,0.00,0.00,VWS V14.00,2013-06-08 05:37:00,
2013-06-08 00:41:00,64.2,60.9,29.87,NW,315,0.0,0.0,89,0.00,,---,0.00,0.00,VWS V14.00,2013-06-08 05:41:00,
2013-06-08 00:45:00,64.1,60.8,29.87,NW,315,0.0,0.0,89,0.00,,---,0.00,0.00,VWS V14.00,2013-06-08 05:45:00,
2013-06-08 00:49:00,64.0,60.7,29.87,NW,315,0.0,0.0,89,0.00,,---,0.00,0.00,VWS V14.00,2013-06-08 05:49:00,
2013-06-08 00:53:00,63.9,60.6,29.87,NW,315,0.0,0.0,89,0.00,,---,0.00,0.00,VWS V14.00,2013-06-08 05:53:00,
2013-06-08 00:57:00,63.8,60.5,29.87,NW,315,0.0,0.0,89,0.00,,---,0.00,0.00,VWS V14.00,2013-06-08 05:57:00,
2013-06-08 01:00:00,63.7,60.4,29.87,NW,315,0.0,0.0,89,0.00,,---,0.00,0.00,VWS V14.00,2013-06-08 06:00:00,
2013-06-08 01:01:00,63.7,60.4,29.87,NW,315,0.0,0.0,89,0.00,,---,0.00,0.00,VWS V14.00,2013-06-08 06:01:00,
2013-06-08 01:05:00,63.6,60.0,29.87,NW,315,0.0,0.0,88,0.00,,---,0.00,0.00,VWS V14.00,2013-06-08 06:05:00,
2013-06-08 01:09:00,63.5,60.2,29.87,NW,315,0.0,0.0,89,0.00,,---,0.00,0.00,VWS V14.00,2013-06-08 06:09:00,
2013-06-08 01:13:00,63.4,60.1,29.87,NW,315,0.0,0.0,89,0.00,,---,0.00,0.00,VWS V14.00,2013-06-08 06:13:00,
2013-06-08 01:17:00,63.4,60.1,29.87,NW,315,0.0,0.0,89,0.00,,---,0.00,0.00,VWS V14.00,2013-06-08 06:17:00,
2013-06-08 01:21:00,63.3,60.0,29.87,NW,315,0.0,0.0,89,0.00,,---,0.00,0.00,VWS V14.00,2013-06-08 06:21:00,
2013-06-08 01:25:00,63.2,59.9,29.87,NW,315,0.0,0.0,89,0.00,,---,0.00,0.00,VWS V14.00,2013-06-08 06:25:00,
2013-06-08 01:29:00,63.2,60.2,29.87,NW,315,0.0,0.0,90,0.00,,---,0.00,0.00,VWS V14.00,2013-06-08 06:29:00,
2013-06-08 01:30:00,63.2,60.2,29.87,NW,315,0.0,0.0,90,0.00,,---,0.00,0.00,VWS V14.00,2013-06-08 06:30:00,
2013-06-08 01:33:00,63.2,60.2,29.87,NW,315,0.0,0.0,90,0.00,,---,0.00,0.00,VWS V14.00,2013-06-08 06:33:00,
2013-06-08 01:37:00,63.1,60.1,29.87,NW,315,0.0,0.0,90,0.00,,---,0.00,0.00,VWS V14.00,2013-06-08 06:37:00,
2013-06-08 01:41:00,63.0,60.0,29.87,NW,315,0.0,0.0,90,0.00,,---,0.00,0.00,VWS V14.00,2013-06-08 06:41:00,
2013-06-08 01:45:00,63.0,60.0,29.88,NW,315,0.0,0.0,90,0.00,,---,0.00,0.00,VWS V14.00,2013-06-08 06:45:00,
2013-06-08 01:49:00,62.9,59.9,29.88,NW,315,0.0,0.0,90,0.00,,---,0.00,0.00,VWS V14.00,2013-06-08 06:49:00,
2013-06-08 01:53:00,62.8,59.8,29.88,NW,315,0.0,0.0,90,0.00,,---,0.00,0.00,VWS V14.00,2013-06-08 06:53:00,
2013-06-08 01:57:00,62.8,59.8,29.88,NW,315,0.0,0.0,90,0.00,,---,0.00,0.00,VWS V14.00,2013-06-08 06:57:00,
2013-06-08 02:00:00,62.7,59.7,29.88,NW,315,0.0,0.0,90,0.00,,---,0.00,0.00,VWS V14.00,2013-06-08 07:00:00,
2013-06-08 02:01:00,62.7,59.7,29.88,NW,315,0.0,0.0,90,0.00,,---,0.00,0.00,VWS V14.00,2013-06-08 07:01:00,
2013-06-08 02:05:00,62.6,59.6,29.88,NW,315,0.0,0.0,90,0.00,,---,0.00,0.00,VWS V14.00,2013-06-08 07:05:00,
2013-06-08 02:09:00,62.5,59.5,29.88,NW,315,0.0,0.0,90,0.00,,---,0.00,0.00,VWS V14.00,2013-06-08 07:09:00,
2013-06-08 02:13:00,62.5,59.8,29.88,NW,315,0.0,0.0,91,0.00,,---,0.00,0.00,VWS V14.00,2013-06-08 07:13:00,
2013-06-08 02:17:00,62.4,59.7,29.88,NW,315,0.0,0.0,91,0.00,,---,0.00,0.00,VWS V14.00,2013-06-08 07:17:00,
2013-06-08 02:21:00,62.5,59.8,29.88,NW,315,0.0,0.0,91,0.00,,---,0.00,0.00,VWS V14.00,2013-06-08 07:21:00,
2013-06-08 02:25:00,62.4,59.7,29.88,NW,315,0.0,0.0,91,0.00,,---,0.00,0.00,VWS V14.00,2013-06-08 07:25:00,
2013-06-08 02:29:00,62.3,59.6,29.88,NW,315,0.0,0.0,91,0.00,,---,0.00,0.00,VWS V14.00,2013-06-08 07:29:00,
2013-06-08 02:30:00,62.3,59.6,29.88,NW,315,0.0,0.0,91,0.00,,---,0.00,0.00,VWS V14.00,2013-06-08 07:30:00,
2013-06-08 02:33:00,62.3,59.6,29.88,NW,315,0.0,0.0,91,0.00,,---,0.00,0.00,VWS V14.00,2013-06-08 07:33:00,
2013-06-08 02:38:00,62.2,59.5,29.88,NW,315,0.0,0.0,91,0.00,,---,0.00,0.00,VWS V14.00,2013-06-08 07:38:00,
2013-06-08 02:42:00,62.1,59.5,29.88,NW,315,0.0,0.0,91,0.00,,---,0.00,0.00,VWS V14.00,2013-06-08 07:42:00,
2013-06-08 02:46:00,62.1,59.5,29.88,NW,315,0.0,0.0,91,0.00,,---,0.00,0.00,VWS V14.00,2013-06-08 07:46:00,
2013-06-08 02:50:00,62.0,59.3,29.88,NW,315,0.0,0.0,91,0.00,,---,0.00,0.00,VWS V14.00,2013-06-08 07:50:00,
2013-06-08 02:54:00,62.0,59.3,29.88,NW,315,0.0,0.0,91,0.00,,---,0.00,0.00,VWS V14.00,2013-06-08 07:54:00,
2013-06-08 02:58:00,61.9,59.2,29.88,NW,315,0.0,0.0,91,0.00,,---,0.00,0.00,VWS V14.00,2013-06-08 07:58:00,
2013-06-08 03:00:00,61.8,59.2,29.87,NW,315,0.0,0.0,91,0.00,,---,0.00,0.00,VWS V14.00,2013-06-08 08:00:00,
2013-06-08 03:02:00,61.8,59.5,29.87,NW,315,0.0,0.0,92,0.00,,---,0.00,0.00,VWS V14.00,2013-06-08 08:02:00,
2013-06-08 03:10:00,61.7,59.4,29.87,NW,315,0.0,0.0,92,0.00,,---,0.00,0.00,VWS V14.00,2013-06-08 08:10:00,
2013-06-08 03:14:00,61.7,59.4,29.87,NW,315,0.0,0.0,92,0.00,,---,0.00,0.00,VWS V14.00,2013-06-08 08:14:00,
2013-06-08 03:18:00,61.7,59.4,29.87,NW,315,0.0,0.0,92,0.00,,---,0.00,0.00,VWS V14.00,2013-06-08 08:18:00,
2013-06-08 03:22:00,61.8,59.8,29.87,NW,315,0.0,0.0,93,0.00,,---,0.00,0.00,VWS V14.00,2013-06-08 08:22:00,
2013-06-08 03:26:00,61.9,59.9,29.87,NW,315,0.0,0.0,93,0.00,,---,0.00,0.00,VWS V14.00,2013-06-08 08:26:00,
2013-06-08 03:30:00,61.9,59.9,29.88,NW,315,0.0,0.0,93,0.00,,---,0.00,0.00,VWS V14.00,2013-06-08 08:30:00,
2013-06-08 03:34:00,61.8,59.8,29.88,NW,315,0.0,0.0,93,0.00,,---,0.00,0.00,VWS V14.00,2013-06-08 08:34:00,
2013-06-08 03:38:00,61.7,59.7,29.88,NW,315,0.0,0.0,93,0.00,,---,0.00,0.00,VWS V14.00,2013-06-08 08:38:00,
2013-06-08 03:42:00,61.6,59.6,29.88,NW,315,0.0,0.0,93,0.00,,---,0.00,0.00,VWS V14.00,2013-06-08 08:42:00,
2013-06-08 03:46:00,61.6,59.6,29.88,NW,315,0.0,0.0,93,0.00,,---,0.00,0.00,VWS V14.00,2013-06-08 08:46:00,
2013-06-08 03:50:00,61.6,59.6,29.88,NW,315,0.0,0.0,93,0.00,,---,0.00,0.00,VWS V14.00,2013-06-08 08:50:00,
2013-06-08 03:54:00,61.7,59.7,29.88,NW,315,0.0,0.0,93,0.00,,---,0.00,0.00,VWS V14.00,2013-06-08 08:54:00,
2013-06-08 03:58:00,61.8,59.8,29.88,NW,315,0.0,0.0,93,0.00,,---,0.00,0.00,VWS V14.00,2013-06-08 08:58:00,
2013-06-08 04:00:00,61.8,59.8,29.88,NW,315,0.0,0.0,93,0.00,,---,0.00,0.00,VWS V14.00,2013-06-08 09:00:00,
2013-06-08 04:02:00,61.9,59.9,29.88,NW,315,0.0,0.0,93,0.00,,---,0.00,0.00,VWS V14.00,2013-06-08 09:02:00,
2013-06-08 04:06:00,62.0,60.3,29.88,NW,315,0.0,0.0,94,0.00,,---,0.00,0.00,VWS V14.00,2013-06-08 09:06:00,
2013-06-08 04:11:00,62.0,60.3,29.88,NW,315,0.0,0.0,94,0.00,,---,0.00,0.00,VWS V14.00,2013-06-08 09:11:00,
2013-06-08 04:15:00,62.0,60.3,29.88,NW,315,0.0,0.0,94,0.00,,---,0.00,0.00,VWS V14.00,2013-06-08 09:15:00,
2013-06-08 04:19:00,61.9,60.2,29.88,NW,315,0.0,0.0,94,0.00,,---,0.00,0.00,VWS V14.00,2013-06-08 09:19:00,
2013-06-08 04:23:00,61.9,60.2,29.88,NW,315,0.0,0.0,94,0.00,,---,0.00,0.00,VWS V14.00,2013-06-08 09:23:00,
2013-06-08 04:27:00,61.9,59.9,29.88,NW,315,0.0,0.0,93,0.00,,---,0.00,0.00,VWS V14.00,2013-06-08 09:27:00,
2013-06-08 04:30:00,61.8,60.1,29.87,NW,315,0.0,0.0,94,0.00,,---,0.00,0.00,VWS V14.00,2013-06-08 09:30:00,
2013-06-08 04:31:00,61.8,60.1,29.87,NW,315,0.0,0.0,94,0.00,,---,0.00,0.00,VWS V14.00,2013-06-08 09:31:00,
2013-06-08 04:35:00,61.8,60.1,29.87,NW,315,0.0,0.0,94,0.00,,---,0.00,0.00,VWS V14.00,2013-06-08 09:35:00,
2013-06-08 04:39:00,61.8,60.1,29.87,NW,310,0.0,0.0,94,0.00,,---,0.00,0.00,VWS V14.00,2013-06-08 09:39:00,
2013-06-08 04:43:00,61.9,60.2,29.87,NW,310,0.0,0.0,94,0.00,,---,0.00,0.00,VWS V14.00,2013-06-08 09:43:00,
2013-06-08 04:47:00,62.1,60.4,29.87,NW,310,0.0,0.0,94,0.00,,---,0.00,0.00,VWS V14.00,2013-06-08 09:47:00,
2013-06-08 04:51:00,62.2,60.5,29.87,NW,310,0.0,0.0,94,0.00,,---,0.00,0.00,VWS V14.00,2013-06-08 09:51:00,
2013-06-08 04:55:00,62.2,60.5,29.87,NW,310,0.0,0.0,94,0.00,,---,0.00,0.00,VWS V14.00,2013-06-08 09:55:00,
2013-06-08 04:59:00,62.1,60.4,29.87,NW,310,0.0,0.0,94,0.00,,---,0.00,0.00,VWS V14.00,2013-06-08 09:59:00,
2013-06-08 05:00:00,62.1,60.4,29.87,NW,310,0.0,0.0,94,0.00,,---,0.00,0.00,VWS V14.00,2013-06-08 10:00:00,
2013-06-08 05:03:00,62.0,60.3,29.87,NW,310,0.0,0.0,94,0.00,,---,0.00,0.00,VWS V14.00,2013-06-08 10:03:00,
2013-06-08 05:07:00,62.0,60.3,29.87,NW,310,0.0,0.0,94,0.00,,---,0.00,0.00,VWS V14.00,2013-06-08 10:07:00,
2013-06-08 05:11:00,61.9,60.2,29.87,NW,310,0.0,0.0,94,0.00,,---,0.00,0.00,VWS V14.00,2013-06-08 10:11:00,
2013-06-08 05:15:00,61.9,60.2,29.87,NW,310,0.0,0.0,94,0.00,,---,0.00,0.00,VWS V14.00,2013-06-08 10:15:00,
2013-06-08 05:19:00,62.0,60.3,29.87,NW,310,0.0,0.0,94,0.00,,---,0.00,0.00,VWS V14.00,2013-06-08 10:19:00,
2013-06-08 05:23:00,62.2,60.8,29.87,NW,310,0.0,0.0,95,0.00,,---,0.00,0.00,VWS V14.00,2013-06-08 10:23:00,
2013-06-08 05:27:00,62.3,60.8,29.87,NW,310,0.0,0.0,95,0.00,,---,0.00,0.00,VWS V14.00,2013-06-08 10:27:00,
2013-06-08 05:30:00,62.3,60.8,29.87,NW,310,0.0,0.0,95,0.00,,---,0.00,0.00,VWS V14.00,2013-06-08 10:30:00,
2013-06-08 05:31:00,62.3,60.8,29.87,NW,310,0.0,0.0,95,0.00,,---,0.00,0.00,VWS V14.00,2013-06-08 10:31:00,
2013-06-08 05:35:00,62.3,60.8,29.87,NW,310,0.0,0.0,95,0.00,,---,0.00,0.00,VWS V14.00,2013-06-08 10:35:00,
2013-06-08 05:39:00,62.4,61.0,29.87,NW,310,0.0,0.0,95,0.00,,---,0.00,0.00,VWS V14.00,2013-06-08 10:39:00,
2013-06-08 05:43:00,62.5,61.0,29.87,NW,310,0.0,0.0,95,0.00,,---,0.00,0.00,VWS V14.00,2013-06-08 10:43:00,
2013-06-08 05:47:00,62.6,61.2,29.87,NW,310,0.0,0.0,95,0.00,,---,0.00,0.00,VWS V14.00,2013-06-08 10:47:00,
2013-06-08 05:51:00,62.7,61.2,29.87,NW,310,0.0,0.0,95,0.00,,---,0.00,0.00,VWS V14.00,2013-06-08 10:51:00,
2013-06-08 05:55:00,62.8,61.3,29.87,NW,310,0.0,0.0,95,0.00,,---,0.00,5.00,VWS V14.00,2013-06-08 10:55:00,
2013-06-08 05:59:00,62.9,61.5,29.88,NW,310,0.0,0.0,95,0.00,,---,0.00,11.00,VWS V14.00,2013-06-08 10:59:00,
2013-06-08 06:00:00,62.9,61.5,29.88,NW,310,0.0,0.0,95,0.00,,---,0.00,11.00,VWS V14.00,2013-06-08 11:00:00,
2013-06-08 06:04:00,63.0,61.5,29.88,NW,310,0.0,0.0,95,0.00,,---,0.00,14.00,VWS V14.00,2013-06-08 11:04:00,
2013-06-08 06:08:00,63.1,61.7,29.88,NW,310,0.0,0.0,95,0.00,,---,0.00,16.00,VWS V14.00,2013-06-08 11:08:00,
2013-06-08 06:12:00,63.3,61.8,29.88,NW,310,0.0,0.0,95,0.00,,---,0.00,19.00,VWS V14.00,2013-06-08 11:12:00,
2013-06-08 06:16:00,63.4,62.0,29.89,NW,310,0.0,0.0,95,0.00,,---,0.00,23.00,VWS V14.00,2013-06-08 11:16:00,
2013-06-08 06:20:00,63.5,62.0,29.89,NW,310,0.0,0.0,95,0.00,,---,0.00,26.00,VWS V14.00,2013-06-08 11:20:00,
2013-06-08 06:24:00,63.7,62.2,29.89,NW,310,0.0,0.0,95,0.00,,---,0.00,28.00,VWS V14.00,2013-06-08 11:24:00,
2013-06-08 06:28:00,63.7,62.2,29.89,East,94,0.0,0.0,95,0.00,,---,0.00,28.00,VWS V14.00,2013-06-08 11:28:00,
2013-06-08 06:30:00,63.7,62.2,29.90,East,94,0.0,0.0,95,0.00,,---,0.00,30.00,VWS V14.00,2013-06-08 11:30:00,
2013-06-08 06:32:00,63.7,62.2,29.90,East,94,0.0,0.0,95,0.00,,---,0.00,32.00,VWS V14.00,2013-06-08 11:32:00,
2013-06-08 06:36:00,63.6,62.2,29.90,WSW,254,0.0,0.0,95,0.00,,---,0.00,33.00,VWS V14.00,2013-06-08 11:36:00,
2013-06-08 06:40:00,63.5,62.0,29.90,WSW,254,0.0,0.0,95,0.00,,---,0.00,33.00,VWS V14.00,2013-06-08 11:40:00,
2013-06-08 06:44:00,63.5,62.0,29.90,WSW,254,0.0,0.0,95,0.00,,---,0.00,37.00,VWS V14.00,2013-06-08 11:44:00,
2013-06-08 06:48:00,63.5,62.0,29.90,WSW,254,0.0,0.0,95,0.00,,---,0.00,37.00,VWS V14.00,2013-06-08 11:48:00,
2013-06-08 06:52:00,63.5,62.0,29.90,WSW,254,0.0,0.0,95,0.00,,---,0.00,40.00,VWS V14.00,2013-06-08 11:52:00,
2013-06-08 06:56:00,63.6,62.2,29.90,WSW,254,0.0,0.0,95,0.00,,---,0.00,111.00,VWS V14.00,2013-06-08 11:56:00,
2013-06-08 07:00:00,63.7,62.2,29.90,WSW,254,0.0,0.0,95,0.00,,---,0.00,139.00,VWS V14.00,2013-06-08 12:00:00,
2013-06-08 07:04:00,63.9,62.4,29.90,WSW,254,0.0,0.0,95,0.00,,---,0.00,149.00,VWS V14.00,2013-06-08 12:04:00,
2013-06-08 07:08:00,64.0,62.5,29.90,WSW,254,0.0,0.0,95,0.00,,---,0.00,165.00,VWS V14.00,2013-06-08 12:08:00,
2013-06-08 07:12:00,64.3,62.8,29.90,WSW,254,0.0,0.0,95,0.00,,---,0.00,169.00,VWS V14.00,2013-06-08 12:12:00,
2013-06-08 07:16:00,64.6,63.1,29.91,WSW,254,0.0,0.0,95,0.00,,---,0.00,72.00,VWS V14.00,2013-06-08 12:16:00,
2013-06-08 07:20:00,64.8,63.3,29.91,WSW,254,0.0,0.0,95,0.00,,---,0.00,172.00,VWS V14.00,2013-06-08 12:20:00,
2013-06-08 07:24:00,65.2,63.7,29.91,ESE,104,0.0,0.0,95,0.00,,---,0.00,200.00,VWS V14.00,2013-06-08 12:24:00,
2013-06-08 07:28:00,65.4,63.9,29.91,ESE,104,0.0,0.0,95,0.00,,---,0.00,221.00,VWS V14.00,2013-06-08 12:28:00,
2013-06-08 07:30:00,65.5,64.0,29.90,ESE,104,0.0,0.0,95,0.00,,---,0.00,221.00,VWS V14.00,2013-06-08 12:30:00,
2013-06-08 07:33:00,65.7,64.5,29.90,ESE,104,0.0,0.0,96,0.00,,---,0.00,227.00,VWS V14.00,2013-06-08 12:33:00,
2013-06-08 07:37:00,66.1,64.9,29.90,ESE,104,0.0,0.0,96,0.00,,---,0.00,232.00,VWS V14.00,2013-06-08 12:37:00,
2013-06-08 07:41:00,66.4,65.2,29.90,ESE,104,0.0,0.0,96,0.00,,---,0.00,244.00,VWS V14.00,2013-06-08 12:41:00,
2013-06-08 07:45:00,66.8,65.3,29.90,ESE,104,0.0,0.0,95,0.00,,---,0.00,267.00,VWS V14.00,2013-06-08 12:45:00,
2013-06-08 07:49:00,67.1,65.6,29.90,ESE,104,0.0,0.0,95,0.00,,---,0.00,287.00,VWS V14.00,2013-06-08 12:49:00,
2013-06-08 07:53:00,67.8,66.3,29.90,ESE,104,0.0,0.0,95,0.00,,---,0.00,302.00,VWS V14.00,2013-06-08 12:53:00,
2013-06-08 07:57:00,68.3,66.2,29.90,ESE,104,0.0,0.0,93,0.00,,---,0.00,309.00,VWS V14.00,2013-06-08 12:57:00,
2013-06-08 08:00:00,68.5,66.1,29.90,ESE,104,0.0,0.0,92,0.00,,---,0.00,325.00,VWS V14.00,2013-06-08 13:00:00,
2013-06-08 08:01:00,68.8,66.1,29.90,ESE,104,0.0,0.0,91,0.00,,---,0.00,338.00,VWS V14.00,2013-06-08 13:01:00,
2013-06-08 08:05:00,69.3,65.9,29.90,ESE,104,0.0,0.0,89,0.00,,---,0.00,352.00,VWS V14.00,2013-06-08 13:05:00,
2013-06-08 08:09:00,69.9,65.5,29.90,ESE,104,0.0,0.0,86,0.00,,---,0.00,366.00,VWS V14.00,2013-06-08 13:09:00,
2013-06-08 08:13:00,70.4,66.0,29.90,ESE,104,0.0,0.0,86,0.00,,---,0.00,378.00,VWS V14.00,2013-06-08 13:13:00,
2013-06-08 08:17:00,71.3,66.6,29.91,ESE,104,0.0,0.0,85,0.00,,---,0.00,390.00,VWS V14.00,2013-06-08 13:17:00,
2013-06-08 08:21:00,72.0,66.2,29.91,ESE,104,0.0,0.0,82,0.00,,---,0.00,406.00,VWS V14.00,2013-06-08 13:21:00,
2013-06-08 08:25:00,72.5,64.9,29.91,ESE,104,0.0,0.0,77,0.00,,---,0.00,422.00,VWS V14.00,2013-06-08 13:25:00,
2013-06-08 08:29:00,72.8,64.4,29.91,ESE,104,0.0,0.0,75,0.00,,---,0.00,429.00,VWS V14.00,2013-06-08 13:29:00,
2013-06-08 08:30:00,73.1,65.5,29.91,ESE,104,0.0,0.0,77,0.00,,---,0.00,438.00,VWS V14.00,2013-06-08 13:30:00,
2013-06-08 08:33:00,73.6,65.9,29.91,ESE,104,0.0,0.0,77,0.00,,---,0.00,450.00,VWS V14.00,2013-06-08 13:33:00,
2013-06-08 08:37:00,74.1,66.1,29.91,ESE,104,0.0,0.0,76,0.00,,---,0.00,455.00,VWS V14.00,2013-06-08 13:37:00,
2013-06-08 08:41:00,74.6,65.8,29.91,ESE,104,0.0,0.0,74,0.00,,---,0.00,462.00,VWS V14.00,2013-06-08 13:41:00,
2013-06-08 08:45:00,75.1,65.9,29.91,ESE,104,0.0,0.0,73,0.00,,---,0.00,471.00,VWS V14.00,2013-06-08 13:45:00,
2013-06-08 08:49:00,75.6,65.5,29.91,ESE,104,0.0,0.0,71,0.00,,---,0.00,496.00,VWS V14.00,2013-06-08 13:49:00,
2013-06-08 08:53:00,76.1,66.8,29.91,ESE,104,0.0,0.0,73,0.00,,---,0.00,508.00,VWS V14.00,2013-06-08 13:53:00,
2013-06-08 08:57:00,76.5,66.8,29.91,ESE,104,0.0,0.0,72,0.00,,---,0.00,517.00,VWS V14.00,2013-06-08 13:57:00,
2013-06-08 09:00:00,76.6,66.5,29.92,ESE,104,0.0,0.0,71,0.00,,---,0.00,533.00,VWS V14.00,2013-06-08 14:00:00,
2013-06-08 09:01:00,76.7,66.2,29.92,ESE,104,0.0,0.0,70,0.00,,---,0.00,538.00,VWS V14.00,2013-06-08 14:01:00,
2013-06-08 09:05:00,77.1,67.0,29.92,ESE,104,0.0,0.0,71,0.00,,---,0.00,547.00,VWS V14.00,2013-06-08 14:05:00,
2013-06-08 09:09:00,77.1,65.7,29.92,ESE,104,0.0,0.0,68,0.00,,---,0.00,555.00,VWS V14.00,2013-06-08 14:09:00,
2013-06-08 09:13:00,77.2,66.2,29.92,ESE,104,0.0,0.0,69,0.00,,---,0.00,563.00,VWS V14.00,2013-06-08 14:13:00,
2013-06-08 09:17:00,77.3,65.9,29.91,ESE,104,0.0,0.0,68,0.00,,---,0.00,566.00,VWS V14.00,2013-06-08 14:17:00,
2013-06-08 09:21:00,77.5,65.7,29.91,ESE,103,0.0,2.0,67,0.00,,---,0.00,594.00,VWS V14.00,2013-06-08 14:21:00,
2013-06-08 09:25:00,77.5,65.7,29.91,ESE,103,1.0,2.0,67,0.00,,---,0.00,608.00,VWS V14.00,2013-06-08 14:25:00,
2013-06-08 09:29:00,77.6,64.9,29.90,East,86,0.0,2.0,65,0.00,,---,0.00,621.00,VWS V14.00,2013-06-08 14:29:00,
2013-06-08 09:30:00,77.6,64.9,29.90,East,86,0.0,2.0,65,0.00,,---,0.00,621.00,VWS V14.00,2013-06-08 14:30:00,
2013-06-08 09:33:00,77.8,64.7,29.90,ESE,119,1.0,4.0,64,0.00,,---,0.00,638.00,VWS V14.00,2013-06-08 14:33:00,
2013-06-08 09:37:00,78.1,65.4,29.90,SE,125,3.0,4.0,65,0.00,,---,0.00,642.00,VWS V14.00,2013-06-08 14:37:00,
2013-06-08 09:42:00,78.5,66.6,29.90,SE,126,3.0,4.0,67,0.00,,---,0.00,643.00,VWS V14.00,2013-06-08 14:42:00,
2013-06-08 09:46:00,78.9,64.8,29.90,ESE,117,1.0,7.0,62,0.00,,---,0.00,668.00,VWS V14.00,2013-06-08 14:46:00,
2013-06-08 09:50:00,79.2,66.4,29.90,SSE,150,2.0,7.0,65,0.00,,---,0.00,680.00,VWS V14.00,2013-06-08 14:50:00,
2013-06-08 09:54:00,79.6,66.4,29.90,SE,138,5.0,7.0,64,0.00,,---,0.00,694.00,VWS V14.00,2013-06-08 14:54:00,
2013-06-08 09:58:00,79.8,65.6,29.90,SSE,161,2.0,7.0,62,0.00,,---,0.00,701.00,VWS V14.00,2013-06-08 14:58:00,
2013-06-08 10:00:00,79.9,65.7,29.90,SSE,157,1.0,7.0,62,0.00,,---,0.00,701.00,VWS V14.00,2013-06-08 15:00:00,
2013-06-08 10:02:00,80.0,66.3,29.90,SE,127,4.0,4.0,63,0.00,,---,0.00,693.00,VWS V14.00,2013-06-08 15:02:00,
2013-06-08 10:06:00,80.1,66.8,29.90,SE,127,3.0,4.0,64,0.00,,---,0.00,693.00,VWS V14.00,2013-06-08 15:06:00,
2013-06-08 10:10:00,80.3,67.5,29.90,SSE,147,3.0,5.0,65,0.00,,---,0.00,740.00,VWS V14.00,2013-06-08 15:10:00,
2013-06-08 10:14:00,80.7,67.4,29.90,SSE,153,5.0,5.0,64,0.00,,---,0.00,766.00,VWS V14.00,2013-06-08 15:14:00,
2013-06-08 10:18:00,81.0,67.2,29.90,SE,143,3.0,5.0,63,0.00,,---,0.00,768.00,VWS V14.00,2013-06-08 15:18:00,
2013-06-08 10:22:00,81.3,67.1,29.90,SE,144,4.0,6.0,62,0.00,,---,0.00,780.00,VWS V14.00,2013-06-08 15:22:00,
2013-06-08 10:26:00,81.6,66.4,29.90,SE,132,7.0,7.0,60,0.00,,---,0.00,809.00,VWS V14.00,2013-06-08 15:26:00,
2013-06-08 10:30:00,81.6,64.9,29.90,SSE,157,7.0,7.0,57,0.00,,---,0.00,851.00,VWS V14.00,2013-06-08 15:30:00,
2013-06-08 10:34:00,81.6,67.3,29.90,SSE,149,4.0,7.0,62,0.00,,---,0.00,884.00,VWS V14.00,2013-06-08 15:34:00,
2013-06-08 10:38:00,81.7,66.0,29.90,SSE,165,3.0,7.0,59,0.00,,---,0.00,877.00,VWS V14.00,2013-06-08 15:38:00,
2013-06-08 10:42:00,81.0,64.3,29.90,SSE,159,4.0,7.0,57,0.00,,---,0.00,199.00,VWS V14.00,2013-06-08 15:42:00,
2013-06-08 10:46:00,80.3,64.7,29.90,ENE,61,1.0,7.0,59,0.00,,---,0.00,213.00,VWS V14.00,2013-06-08 15:46:00,
2013-06-08 10:50:00,80.2,64.6,29.90,SSE,152,3.0,7.0,59,0.00,,---,0.00,221.00,VWS V14.00,2013-06-08 15:50:00,
2013-06-08 10:54:00,80.0,63.4,29.90,South,183,3.0,7.0,57,0.00,,---,0.00,236.00,VWS V14.00,2013-06-08 15:54:00,
2013-06-08 10:58:00,80.5,66.8,29.90,SSE,148,0.0,7.0,63,0.00,,---,0.00,933.00,VWS V14.00,2013-06-08 15:58:00,
2013-06-08 11:00:00,80.8,66.6,29.90,South,177,2.0,7.0,62,0.00,,---,0.00,940.00,VWS V14.00,2013-06-08 16:00:00,
2013-06-08 11:02:00,81.3,65.1,29.90,SSE,149,5.0,5.0,58,0.00,,---,0.00,965.00,VWS V14.00,2013-06-08 16:02:00,
2013-06-08 11:06:00,81.5,65.3,29.90,SE,142,3.0,5.0,58,0.00,,---,0.00,965.00,VWS V14.00,2013-06-08 16:06:00,
2013-06-08 11:10:00,81.9,64.7,29.90,South,184,4.0,6.0,56,0.00,,---,0.00,911.00,VWS V14.00,2013-06-08 16:10:00,
2013-06-08 11:14:00,82.2,63.9,29.90,South,176,3.0,6.0,54,0.00,,---,0.00,893.00,VWS V14.00,2013-06-08 16:14:00,
2013-06-08 11:18:00,82.6,64.8,29.90,SSE,166,1.0,6.0,55,0.00,,---,0.00,898.00,VWS V14.00,2013-06-08 16:18:00,
2013-06-08 11:22:00,82.8,65.0,29.90,SE,134,6.0,6.0,55,0.00,,---,0.00,904.00,VWS V14.00,2013-06-08 16:22:00,
2013-06-08 11:26:00,83.0,65.2,29.90,SE,136,2.0,6.0,55,0.00,,---,0.00,891.00,VWS V14.00,2013-06-08 16:26:00,
2013-06-08 11:30:00,83.2,65.9,29.89,SSE,155,1.0,6.0,56,0.00,,---,0.00,888.00,VWS V14.00,2013-06-08 16:30:00,
2013-06-08 11:34:00,83.6,66.8,29.89,SSE,168,5.0,5.0,57,0.00,,---,0.00,916.00,VWS V14.00,2013-06-08 16:34:00,
2013-06-08 11:38:00,83.7,65.8,29.89,South,173,1.0,6.0,55,0.00,,---,0.00,956.00,VWS V14.00,2013-06-08 16:38:00,
2013-06-08 11:42:00,83.7,65.3,29.89,SSE,167,5.0,6.0,54,0.00,,---,0.00,956.00,VWS V14.00,2013-06-08 16:42:00,
2013-06-08 11:46:00,83.4,67.1,29.89,South,190,4.0,6.0,58,0.00,,---,0.00,962.00,VWS V14.00,2013-06-08 16:46:00,
2013-06-08 11:51:00,83.4,66.1,29.89,South,186,3.0,6.0,56,0.00,,---,0.00,960.00,VWS V14.00,2013-06-08 16:51:00,
2013-06-08 11:55:00,83.6,66.3,29.89,SSE,159,5.0,6.0,56,0.00,,---,0.00,969.00,VWS V14.00,2013-06-08 16:55:00,
2013-06-08 11:59:00,83.6,64.1,29.89,SSE,162,4.0,6.0,52,0.00,,---,0.00,967.00,VWS V14.00,2013-06-08 16:59:00,
2013-06-08 12:00:00,83.6,63.0,29.89,South,177,3.0,6.0,50,0.00,,---,0.00,953.00,VWS V14.00,2013-06-08 17:00:00,
2013-06-08 12:03:00,83.9,67.6,29.89,South,173,3.0,5.0,58,0.00,,---,0.00,949.00,VWS V14.00,2013-06-08 17:03:00,
2013-06-08 12:07:00,84.1,63.5,29.89,SSE,165,3.0,5.0,50,0.00,,---,0.00,953.00,VWS V14.00,2013-06-08 17:07:00,
2013-06-08 12:11:00,84.3,64.2,29.89,SE,134,3.0,5.0,51,0.00,,---,0.00,962.00,VWS V14.00,2013-06-08 17:11:00,
2013-06-08 12:15:00,84.6,65.1,29.88,SE,130,3.0,5.0,52,0.00,,---,0.00,984.00,VWS V14.00,2013-06-08 17:15:00,
2013-06-08 12:19:00,84.8,66.8,29.88,SSE,159,5.0,5.0,55,0.00,,---,0.00,969.00,VWS V14.00,2013-06-08 17:19:00,
2013-06-08 12:23:00,84.7,65.1,29.88,SSE,152,4.0,6.0,52,0.00,,---,0.00,1014.00,VWS V14.00,2013-06-08 17:23:00,
2013-06-08 12:27:00,84.8,67.9,29.88,South,176,1.0,6.0,57,0.00,,---,0.00,972.00,VWS V14.00,2013-06-08 17:27:00,
2013-06-08 12:30:00,85.0,65.4,29.87,SSE,164,1.0,6.0,52,0.00,,---,0.00,939.00,VWS V14.00,2013-06-08 17:30:00,
2013-06-08 12:31:00,85.0,64.9,29.87,SSE,168,5.0,5.0,51,0.00,,---,0.00,946.00,VWS V14.00,2013-06-08 17:31:00,
2013-06-08 12:35:00,84.8,62.3,29.87,SSE,158,1.0,6.0,47,0.00,,---,0.00,946.00,VWS V14.00,2013-06-08 17:35:00,
2013-06-08 12:39:00,84.9,66.4,29.87,SE,137,11.0,11.0,54,0.00,,---,0.00,960.00,VWS V14.00,2013-06-08 17:39:00,
2013-06-08 12:43:00,84.7,65.7,29.87,SE,144,5.0,11.0,53,0.00,,---,0.00,954.00,VWS V14.00,2013-06-08 17:43:00,
2013-06-08 12:47:00,84.7,65.7,29.86,SE,141,5.0,11.0,53,0.00,,---,0.00,947.00,VWS V14.00,2013-06-08 17:47:00,
2013-06-08 12:51:00,84.7,64.0,29.86,ESE,104,5.0,11.0,50,0.00,,---,0.00,949.00,VWS V14.00,2013-06-08 17:51:00,
2013-06-08 12:55:00,84.5,65.0,29.86,SE,126,5.0,11.0,52,0.00,,---,0.00,954.00,VWS V14.00,2013-06-08 17:55:00,
2013-06-08 12:59:00,84.7,66.8,29.84,SSE,158,3.0,11.0,55,0.00,,---,0.00,956.00,VWS V14.00,2013-06-08 17:59:00,
2013-06-08 13:00:00,84.7,65.1,29.84,SSE,154,4.0,11.0,52,0.00,,---,0.00,956.00,VWS V14.00,2013-06-08 18:00:00,
2013-06-08 13:03:00,85.0,65.4,29.84,SSE,148,3.0,5.0,52,0.00,,---,0.00,954.00,VWS V14.00,2013-06-08 18:03:00,
2013-06-08 13:07:00,84.8,65.8,29.84,SSE,157,4.0,8.0,53,0.00,,---,0.00,947.00,VWS V14.00,2013-06-08 18:07:00,
2013-06-08 13:11:00,84.9,66.4,29.84,SE,132,10.0,10.0,54,0.00,,---,0.00,942.00,VWS V14.00,2013-06-08 18:11:00,
2013-06-08 13:15:00,85.0,63.7,29.84,East,80,3.0,10.0,49,0.00,,---,0.00,939.00,VWS V14.00,2013-06-08 18:15:00,
2013-06-08 13:19:00,84.6,65.1,29.84,ENE,68,2.0,10.0,52,0.00,,---,0.00,942.00,VWS V14.00,2013-06-08 18:19:00,
2013-06-08 13:23:00,84.7,66.8,29.84,SE,142,8.0,10.0,55,0.00,,---,0.00,956.00,VWS V14.00,2013-06-08 18:23:00,
2013-06-08 13:27:00,84.8,66.8,29.84,ESE,116,2.0,10.0,55,0.00,,---,0.00,942.00,VWS V14.00,2013-06-08 18:27:00,
2013-06-08 13:30:00,84.9,66.9,29.84,SE,132,3.0,10.0,55,0.00,,---,0.00,942.00,VWS V14.00,2013-06-08 18:30:00,
2013-06-08 13:31:00,85.1,67.7,29.84,SE,128,2.0,3.0,56,0.00,,---,0.00,951.00,VWS V14.00,2013-06-08 18:31:00,
2013-06-08 13:35:00,85.2,65.6,29.84,SSE,160,5.0,6.0,52,0.00,,---,0.00,937.00,VWS V14.00,2013-06-08 18:35:00,
2013-06-08 13:39:00,85.3,63.4,29.84,SE,136,4.0,7.0,48,0.00,,---,0.00,937.00,VWS V14.00,2013-06-08 18:39:00,
2013-06-08 13:44:00,85.4,64.1,29.84,ESE,111,2.0,7.0,49,0.00,,---,0.00,932.00,VWS V14.00,2013-06-08 18:44:00,
2013-06-08 13:48:00,85.3,63.4,29.84,SE,124,4.0,7.0,48,0.00,,---,0.00,937.00,VWS V14.00,2013-06-08 18:48:00,
2013-06-08 13:52:00,85.5,64.8,29.84,SE,137,6.0,7.0,50,0.00,,---,0.00,937.00,VWS V14.00,2013-06-08 18:52:00,
2013-06-08 13:56:00,85.7,65.5,29.84,South,184,3.0,7.0,51,0.00,,---,0.00,921.00,VWS V14.00,2013-06-08 18:56:00,
2013-06-08 14:00:00,86.0,64.6,29.83,SSE,149,3.0,7.0,49,0.00,,---,0.00,921.00,VWS V14.00,2013-06-08 19:00:00,
2013-06-08 14:04:00,86.2,66.0,29.83,ESE,112,2.0,7.0,51,0.00,,---,0.00,853.00,VWS V14.00,2013-06-08 19:04:00,
2013-06-08 14:08:00,86.2,66.5,29.83,SSE,147,3.0,7.0,52,0.00,,---,0.00,925.00,VWS V14.00,2013-06-08 19:08:00,
2013-06-08 14:12:00,86.3,64.3,29.83,South,176,4.0,7.0,48,0.00,,---,0.00,932.00,VWS V14.00,2013-06-08 19:12:00,
2013-06-08 14:16:00,86.5,64.5,29.83,SSE,163,2.0,7.0,48,0.00,,---,0.00,953.00,VWS V14.00,2013-06-08 19:16:00,
2013-06-08 14:20:00,86.6,65.8,29.83,ESE,103,4.0,7.0,50,0.00,,---,0.00,953.00,VWS V14.00,2013-06-08 19:20:00,
2013-06-08 14:24:00,86.3,65.5,29.83,SE,140,3.0,7.0,50,0.00,,---,0.00,916.00,VWS V14.00,2013-06-08 19:24:00,
2013-06-08 14:28:00,86.0,64.0,29.83,East,98,0.0,7.0,48,0.00,,---,0.00,918.00,VWS V14.00,2013-06-08 19:28:00,
2013-06-08 14:30:00,85.9,65.1,29.82,ENE,75,1.0,7.0,50,0.00,,---,0.00,926.00,VWS V14.00,2013-06-08 19:30:00,
2013-06-08 14:32:00,85.7,64.9,29.82,ESE,118,4.0,4.0,50,0.00,,---,0.00,944.00,VWS V14.00,2013-06-08 19:32:00,
2013-06-08 14:36:00,85.9,65.1,29.82,SE,125,0.0,5.0,50,0.00,,---,0.00,976.00,VWS V14.00,2013-06-08 19:36:00,
2013-06-08 14:40:00,86.3,64.3,29.82,South,186,0.0,5.0,48,0.00,,---,0.00,879.00,VWS V14.00,2013-06-08 19:40:00,
2013-06-08 14:44:00,85.9,64.5,29.82,SSE,148,4.0,7.0,49,0.00,,---,0.00,357.00,VWS V14.00,2013-06-08 19:44:00,
2013-06-08 14:48:00,85.8,66.2,29.82,South,173,3.0,7.0,52,0.00,,---,0.00,944.00,VWS V14.00,2013-06-08 19:48:00,
2013-06-08 14:52:00,86.2,64.8,29.82,SSE,159,0.0,7.0,49,0.00,,---,0.00,911.00,VWS V14.00,2013-06-08 19:52:00,
2013-06-08 14:56:00,86.5,66.2,29.82,SSW,200,1.0,7.0,51,0.00,,---,0.00,795.00,VWS V14.00,2013-06-08 19:56:00,
2013-06-08 15:00:00,86.8,65.4,29.82,South,169,4.0,7.0,49,0.00,,---,0.00,932.00,VWS V14.00,2013-06-08 20:00:00,
2013-06-08 15:04:00,87.3,65.8,29.82,SW,231,0.0,4.0,49,0.00,,---,0.00,951.00,VWS V14.00,2013-06-08 20:04:00,
2013-06-08 15:08:00,87.7,66.8,29.82,SE,140,3.0,4.0,50,0.00,,---,0.00,939.00,VWS V14.00,2013-06-08 20:08:00,
2013-06-08 15:12:00,88.1,67.7,29.82,SSE,154,4.0,4.0,51,0.00,,---,0.00,898.00,VWS V14.00,2013-06-08 20:12:00,
2013-06-08 15:16:00,88.3,65.5,29.81,SE,129,0.0,4.0,47,0.00,,---,0.00,833.00,VWS V14.00,2013-06-08 20:16:00,
2013-06-08 15:20:00,88.2,66.1,29.81,SE,129,0.0,4.0,48,0.00,,---,0.00,847.00,VWS V14.00,2013-06-08 20:20:00,
2013-06-08 15:24:00,88.3,66.7,29.81,SE,129,0.0,4.0,49,0.00,,---,0.00,322.00,VWS V14.00,2013-06-08 20:24:00,
2013-06-08 15:28:00,88.3,67.9,29.81,SE,143,3.0,5.0,51,0.00,,---,0.00,322.00,VWS V14.00,2013-06-08 20:28:00,
2013-06-08 15:30:00,88.2,64.8,29.81,SE,127,1.0,5.0,46,0.00,,---,0.00,151.00,VWS V14.00,2013-06-08 20:30:00,
2013-06-08 15:32:00,88.0,65.3,29.81,SE,131,3.0,3.0,47,0.00,,---,0.00,193.00,VWS V14.00,2013-06-08 20:32:00,
2013-06-08 15:36:00,87.9,65.2,29.81,SE,136,2.0,3.0,47,0.00,,---,0.00,761.00,VWS V14.00,2013-06-08 20:36:00,
2013-06-08 15:41:00,88.0,67.6,29.81,SE,140,2.0,3.0,51,0.00,,---,0.00,803.00,VWS V14.00,2013-06-08 20:41:00,
2013-06-08 15:45:00,87.9,66.9,29.81,ESE,111,2.0,4.0,50,0.00,,---,0.00,821.00,VWS V14.00,2013-06-08 20:45:00,
2013-06-08 15:49:00,87.5,66.0,29.81,ESE,108,5.0,5.0,49,0.00,,---,0.00,821.00,VWS V14.00,2013-06-08 20:49:00,
2013-06-08 15:53:00,86.7,63.5,29.81,ESE,113,1.0,5.0,46,0.00,,---,0.00,148.00,VWS V14.00,2013-06-08 20:53:00,
2013-06-08 15:57:00,86.2,64.8,29.81,ENE,78,0.0,5.0,49,0.00,,---,0.00,673.00,VWS V14.00,2013-06-08 20:57:00,
2013-06-08 16:00:00,86.0,64.6,29.81,ENE,76,0.0,5.0,49,0.00,,---,0.00,621.00,VWS V14.00,2013-06-08 21:00:00,
2013-06-08 16:01:00,85.9,64.5,29.81,East,82,1.0,1.0,49,0.00,,---,0.00,613.00,VWS V14.00,2013-06-08 21:01:00,
2013-06-08 16:05:00,86.0,65.8,29.81,SSE,165,3.0,5.0,51,0.00,,---,0.00,729.00,VWS V14.00,2013-06-08 21:05:00,
2013-06-08 16:09:00,86.4,66.7,29.81,SSE,148,4.0,7.0,52,0.00,,---,0.00,729.00,VWS V14.00,2013-06-08 21:09:00,
2013-06-08 16:13:00,86.4,64.4,29.81,SE,142,2.0,7.0,48,0.00,,---,0.00,190.00,VWS V14.00,2013-06-08 21:13:00,
2013-06-08 16:17:00,86.2,64.8,29.81,SE,134,2.0,7.0,49,0.00,,---,0.00,728.00,VWS V14.00,2013-06-08 21:17:00,
2013-06-08 16:21:00,86.2,64.8,29.81,ESE,117,3.0,7.0,49,0.00,,---,0.00,728.00,VWS V14.00,2013-06-08 21:21:00,
2013-06-08 16:25:00,86.1,64.1,29.81,ESE,111,0.0,7.0,48,0.00,,---,0.00,543.00,VWS V14.00,2013-06-08 21:25:00,
2013-06-08 16:29:00,86.0,65.2,29.81,ESE,111,1.0,7.0,50,0.00,,---,0.00,642.00,VWS V14.00,2013-06-08 21:29:00,
2013-06-08 16:30:00,86.0,64.6,29.80,ESE,121,2.0,7.0,49,0.00,,---,0.00,645.00,VWS V14.00,2013-06-08 21:30:00,
2013-06-08 16:33:00,86.1,67.0,29.80,SE,126,3.0,4.0,53,0.00,,---,0.00,633.00,VWS V14.00,2013-06-08 21:33:00,
2013-06-08 16:37:00,86.4,64.4,29.80,SSE,150,3.0,5.0,48,0.00,,---,0.00,635.00,VWS V14.00,2013-06-08 21:37:00,
2013-06-08 16:41:00,86.7,63.5,29.80,SSE,152,2.0,6.0,46,0.00,,---,0.00,642.00,VWS V14.00,2013-06-08 21:41:00,
2013-06-08 16:45:00,86.9,64.9,29.80,ESE,123,4.0,6.0,48,0.00,,---,0.00,633.00,VWS V14.00,2013-06-08 21:45:00,
2013-06-08 16:49:00,86.9,66.0,29.80,ESE,111,3.0,6.0,50,0.00,,---,0.00,158.00,VWS V14.00,2013-06-08 21:49:00,
2013-06-08 16:53:00,86.6,65.2,29.80,SE,134,1.0,6.0,49,0.00,,---,0.00,162.00,VWS V14.00,2013-06-08 21:53:00,
2013-06-08 16:57:00,86.6,66.9,29.80,SE,134,0.0,6.0,52,0.00,,---,0.00,483.00,VWS V14.00,2013-06-08 21:57:00,
2013-06-08 17:00:00,86.6,64.0,29.80,SE,133,2.0,6.0,47,0.00,,---,0.00,461.00,VWS V14.00,2013-06-08 22:00:00,
2013-06-08 17:01:00,86.6,65.8,29.80,SE,133,3.0,3.0,50,0.00,,---,0.00,501.00,VWS V14.00,2013-06-08 22:01:00,
2013-06-08 17:05:00,86.5,63.9,29.80,SE,125,3.0,3.0,47,0.00,,---,0.00,571.00,VWS V14.00,2013-06-08 22:05:00,
2013-06-08 17:09:00,86.3,64.3,29.80,East,91,3.0,5.0,48,0.00,,---,0.00,541.00,VWS V14.00,2013-06-08 22:09:00,
2013-06-08 17:13:00,86.2,63.6,29.80,ESE,102,3.0,5.0,47,0.00,,---,0.00,232.00,VWS V14.00,2013-06-08 22:13:00,
2013-06-08 17:17:00,85.8,65.0,29.79,SSE,158,3.0,6.0,50,0.00,,---,0.00,128.00,VWS V14.00,2013-06-08 22:17:00,
2013-06-08 17:21:00,85.2,65.1,29.79,SE,139,3.0,6.0,51,0.00,,---,0.00,118.00,VWS V14.00,2013-06-08 22:21:00,
2013-06-08 17:25:00,84.7,64.0,29.79,South,169,3.0,6.0,50,0.00,,---,0.00,438.00,VWS V14.00,2013-06-08 22:25:00,
2013-06-08 17:29:00,84.7,64.0,29.79,SE,145,2.0,6.0,50,0.00,,---,0.00,427.00,VWS V14.00,2013-06-08 22:29:00,
2013-06-08 17:30:00,84.7,64.0,29.79,SE,146,3.0,6.0,50,0.00,,---,0.00,427.00,VWS V14.00,2013-06-08 22:30:00,
2013-06-08 17:33:00,84.9,65.3,29.79,SE,143,3.0,3.0,52,0.00,,---,0.00,381.00,VWS V14.00,2013-06-08 22:33:00,
2013-06-08 17:37:00,85.1,66.1,29.79,SE,146,1.0,3.0,53,0.00,,---,0.00,408.00,VWS V14.00,2013-06-08 22:37:00,
2013-06-08 17:42:00,85.3,65.1,29.79,SE,138,1.0,3.0,51,0.00,,---,0.00,401.00,VWS V14.00,2013-06-08 22:42:00,
2013-06-08 17:45:00,85.6,66.5,29.79,SE,134,4.0,4.0,53,0.00,,---,0.00,396.00,VWS V14.00,2013-06-08 22:45:00,
2013-06-08 17:50:00,85.8,66.2,29.79,SE,136,4.0,4.0,52,0.00,,---,0.00,380.00,VWS V14.00,2013-06-08 22:50:00,
2013-06-08 17:54:00,85.8,66.2,29.79,SE,130,3.0,7.0,52,0.00,,---,0.00,329.00,VWS V14.00,2013-06-08 22:54:00,
2013-06-08 17:58:00,85.6,64.3,29.79,SE,126,4.0,11.0,49,0.00,,---,0.00,322.00,VWS V14.00,2013-06-08 22:58:00,
2013-06-08 18:00:00,85.4,65.2,29.78,ESE,119,8.0,11.0,51,0.00,,---,0.00,299.00,VWS V14.00,2013-06-08 23:00:00,
2013-06-08 18:02:00,85.3,64.6,29.78,SE,141,6.0,6.0,50,0.00,,---,0.00,294.00,VWS V14.00,2013-06-08 23:02:00,
2013-06-08 18:10:00,85.0,64.9,29.78,SE,139,7.0,7.0,51,0.00,,---,0.00,243.00,VWS V14.00,2013-06-08 23:10:00,
2013-06-08 18:14:00,84.8,65.2,29.78,SE,139,4.0,7.0,52,0.00,,---,0.00,141.00,VWS V14.00,2013-06-08 23:14:00,
2013-06-08 18:18:00,84.5,64.4,29.78,SE,144,5.0,7.0,51,0.00,,---,0.00,160.00,VWS V14.00,2013-06-08 23:18:00,
2013-06-08 18:22:00,84.3,64.8,29.78,SE,138,5.0,7.0,52,0.00,,---,0.00,207.00,VWS V14.00,2013-06-08 23:22:00,
2013-06-08 18:26:00,84.2,66.3,29.78,SE,139,4.0,7.0,55,0.00,,---,0.00,153.00,VWS V14.00,2013-06-08 23:26:00,
2013-06-08 18:30:00,84.0,65.6,29.78,SE,143,4.0,8.0,54,0.00,,---,0.00,178.00,VWS V14.00,2013-06-08 23:30:00,
2013-06-08 18:34:00,83.8,65.4,29.78,SE,142,5.0,5.0,54,0.00,,---,0.00,202.00,VWS V14.00,2013-06-08 23:34:00,
2013-06-08 18:38:00,83.7,65.3,29.78,SE,145,5.0,9.0,54,0.00,,---,0.00,211.00,VWS V14.00,2013-06-08 23:38:00,
2013-06-08 18:42:00,83.7,65.8,29.78,SE,146,5.0,9.0,55,0.00,,---,0.00,188.00,VWS V14.00,2013-06-08 23:42:00,
2013-06-08 18:46:00,83.6,65.7,29.78,SE,143,2.0,9.0,55,0.00,,---,0.00,104.00,VWS V14.00,2013-06-08 23:46:00,
2013-06-08 18:50:00,83.4,65.0,29.78,SE,142,3.0,9.0,54,0.00,,---,0.00,88.00,VWS V14.00,2013-06-08 23:50:00,
2013-06-08 18:54:00,83.3,65.5,29.78,SSE,147,3.0,9.0,55,0.00,,---,0.00,127.00,VWS V14.00,2013-06-08 23:54:00,
2013-06-08 18:58:00,83.1,65.8,29.78,SSE,147,2.0,9.0,56,0.00,,---,0.00,81.00,VWS V14.00,2013-06-08 23:58:00,
2013-06-08 19:00:00,83.0,66.2,29.78,SSE,147,2.0,9.0,57,0.00,,---,0.00,62.00,VWS V14.00,2013-06-09 00:00:00,
2013-06-08 19:02:00,82.9,66.1,29.78,SSE,147,1.0,2.0,57,0.00,,---,0.00,44.00,VWS V14.00,2013-06-09 00:02:00,
2013-06-08 19:06:00,82.7,65.9,29.78,SSE,147,1.0,2.0,57,0.00,,---,0.00,39.00,VWS V14.00,2013-06-09 00:06:00,
2013-06-08 19:10:00,82.5,66.2,29.78,SSE,147,1.0,2.0,58,0.00,,---,0.00,37.00,VWS V14.00,2013-06-09 00:10:00,
2013-06-08 19:14:00,82.4,66.2,29.78,SSE,147,0.0,2.0,58,0.00,,---,0.00,35.00,VWS V14.00,2013-06-09 00:14:00,
2013-06-08 19:18:00,82.1,66.4,29.78,SSE,147,1.0,2.0,59,0.00,,---,0.00,30.00,VWS V14.00,2013-06-09 00:18:00,
2013-06-08 19:22:00,82.0,67.2,29.78,SSE,147,1.0,2.0,61,0.00,,---,0.00,28.00,VWS V14.00,2013-06-09 00:22:00,
2013-06-08 19:26:00,81.6,67.8,29.78,SSE,147,0.0,2.0,63,0.00,,---,0.00,25.00,VWS V14.00,2013-06-09 00:26:00,
2013-06-08 19:30:00,81.4,67.6,29.78,SSE,147,0.0,2.0,63,0.00,,---,0.00,18.00,VWS V14.00,2013-06-09 00:30:00,
2013-06-08 19:34:00,81.0,67.2,29.78,SSE,147,1.0,1.0,63,0.00,,---,0.00,14.00,VWS V14.00,2013-06-09 00:34:00,
2013-06-08 19:39:00,80.7,66.9,29.78,SSE,147,1.0,2.0,63,0.00,,---,0.00,12.00,VWS V14.00,2013-06-09 00:39:00,
2013-06-08 19:43:00,80.5,66.3,29.78,SSE,147,0.0,2.0,62,0.00,,---,0.00,11.00,VWS V14.00,2013-06-09 00:43:00,
2013-06-08 19:47:00,80.3,66.6,29.79,SE,141,0.0,2.0,63,0.00,,---,0.00,9.00,VWS V14.00,2013-06-09 00:47:00,
2013-06-08 19:51:00,80.2,67.4,29.79,SW,233,0.0,2.0,65,0.00,,---,0.00,7.00,VWS V14.00,2013-06-09 00:51:00,
2013-06-08 19:55:00,80.0,67.2,29.79,SW,233,0.0,2.0,65,0.00,,---,0.00,5.00,VWS V14.00,2013-06-09 00:55:00,
2013-06-08 19:59:00,79.9,67.1,29.79,SW,233,0.0,2.0,65,0.00,,---,0.00,5.00,VWS V14.00,2013-06-09 00:59:00,
2013-06-08 20:00:00,79.9,67.5,29.78,SW,233,0.0,2.0,66,0.00,,---,0.00,0.00,VWS V14.00,2013-06-09 01:00:00,
2013-06-08 20:03:00,79.7,67.8,29.78,South,174,2.0,2.0,67,0.00,,---,0.00,0.00,VWS V14.00,2013-06-09 01:03:00,
2013-06-08 20:07:00,79.4,67.5,29.78,South,174,2.0,3.0,67,0.00,,---,0.00,0.00,VWS V14.00,2013-06-09 01:07:00,
2013-06-08 20:11:00,79.1,67.2,29.78,South,174,1.0,3.0,67,0.00,,---,0.00,0.00,VWS V14.00,2013-06-09 01:11:00,
2013-06-08 20:15:00,78.9,66.6,29.78,South,174,0.0,3.0,66,0.00,,---,0.00,0.00,VWS V14.00,2013-06-09 01:15:00,
2013-06-08 20:19:00,78.7,67.7,29.78,South,174,1.0,3.0,69,0.00,,---,0.00,0.00,VWS V14.00,2013-06-09 01:19:00,
2013-06-08 20:23:00,78.6,67.6,29.78,South,174,0.0,3.0,69,0.00,,---,0.00,0.00,VWS V14.00,2013-06-09 01:23:00,
2013-06-08 20:27:00,78.4,67.4,29.78,South,174,1.0,3.0,69,0.00,,---,0.00,0.00,VWS V14.00,2013-06-09 01:27:00,
2013-06-08 20:30:00,78.2,67.2,29.78,South,174,3.0,3.0,69,0.00,,---,0.00,0.00,VWS V14.00,2013-06-09 01:30:00,
2013-06-08 20:31:00,78.2,67.2,29.78,South,174,2.0,3.0,69,0.00,,---,0.00,0.00,VWS V14.00,2013-06-09 01:31:00,
2013-06-08 20:35:00,77.8,67.7,29.78,South,173,2.0,3.0,71,0.00,,---,0.00,0.00,VWS V14.00,2013-06-09 01:35:00,
2013-06-08 20:39:00,77.5,67.4,29.78,SSE,161,3.0,3.0,71,0.00,,---,0.00,0.00,VWS V14.00,2013-06-09 01:39:00,
2013-06-08 20:43:00,77.1,66.6,29.78,SSE,161,3.0,4.0,70,0.00,,---,0.00,0.00,VWS V14.00,2013-06-09 01:43:00,
2013-06-08 20:47:00,76.8,66.7,29.77,SSE,161,3.0,4.0,71,0.00,,---,0.00,0.00,VWS V14.00,2013-06-09 01:47:00,
2013-06-08 20:51:00,76.6,66.5,29.77,SE,144,4.0,4.0,71,0.00,,---,0.00,0.00,VWS V14.00,2013-06-09 01:51:00,
2013-06-08 20:55:00,76.4,66.3,29.77,SE,145,2.0,4.0,71,0.00,,---,0.00,0.00,VWS V14.00,2013-06-09 01:55:00,
2013-06-08 20:59:00,76.3,66.2,29.78,SE,143,5.0,5.0,71,0.00,,---,0.00,0.00,VWS V14.00,2013-06-09 01:59:00,
2013-06-08 21:00:00,76.3,66.2,29.78,SE,143,4.0,5.0,71,0.00,,---,0.00,0.00,VWS V14.00,2013-06-09 02:00:00,
2013-06-08 21:03:00,76.2,66.1,29.78,SE,144,5.0,5.0,71,0.00,,---,0.00,0.00,VWS V14.00,2013-06-09 02:03:00,
2013-06-08 21:07:00,76.2,65.7,29.78,SE,143,4.0,6.0,70,0.00,,---,0.00,0.00,VWS V14.00,2013-06-09 02:07:00,
2013-06-08 21:11:00,76.2,66.1,29.78,SE,142,5.0,6.0,71,0.00,,---,0.00,0.00,VWS V14.00,2013-06-09 02:11:00,
2013-06-08 21:15:00,76.1,66.0,29.78,SE,141,3.0,6.0,71,0.00,,---,0.00,0.00,VWS V14.00,2013-06-09 02:15:00,
2013-06-08 21:19:00,76.1,66.0,29.78,SE,143,3.0,6.0,71,0.00,,---,0.00,0.00,VWS V14.00,2013-06-09 02:19:00,
2013-06-08 21:23:00,76.0,65.9,29.78,SE,140,4.0,6.0,71,0.00,,---,0.00,0.00,VWS V14.00,2013-06-09 02:23:00,
2013-06-08 21:27:00,75.9,65.8,29.78,SE,140,1.0,6.0,71,0.00,,---,0.00,0.00,VWS V14.00,2013-06-09 02:27:00,
2013-06-08 21:30:00,75.9,65.8,29.79,SE,140,0.0,6.0,71,0.00,,---,0.00,0.00,VWS V14.00,2013-06-09 02:30:00,
2013-06-08 21:32:00,75.9,65.8,29.79,SE,140,0.0,0.0,71,0.00,,---,0.00,0.00,VWS V14.00,2013-06-09 02:32:00,
2013-06-08 21:36:00,75.8,65.7,29.79,SE,140,0.0,1.0,71,0.00,,---,0.00,0.00,VWS V14.00,2013-06-09 02:36:00,
2013-06-08 21:40:00,75.7,65.6,29.79,SE,140,1.0,2.0,71,0.00,,---,0.00,0.00,VWS V14.00,2013-06-09 02:40:00,
2013-06-08 21:44:00,75.6,65.5,29.79,SE,140,2.0,3.0,71,0.00,,---,0.00,0.00,VWS V14.00,2013-06-09 02:44:00,
2013-06-08 21:48:00,75.6,65.9,29.80,SE,140,2.0,4.0,72,0.00,,---,0.00,0.00,VWS V14.00,2013-06-09 02:48:00,
2013-06-08 21:52:00,75.5,66.2,29.80,SE,140,2.0,4.0,73,0.00,,---,0.00,0.00,VWS V14.00,2013-06-09 02:52:00,
2013-06-08 21:56:00,75.5,66.2,29.80,SE,138,3.0,4.0,73,0.00,,---,0.00,0.00,VWS V14.00,2013-06-09 02:56:00,
2013-06-08 22:00:00,75.5,66.2,29.81,SE,132,3.0,4.0,73,0.00,,---,0.00,0.00,VWS V14.00,2013-06-09 03:00:00,
2013-06-08 22:04:00,75.5,66.2,29.81,SE,132,1.0,3.0,73,0.00,,---,0.00,0.00,VWS V14.00,2013-06-09 03:04:00,
2013-06-08 22:08:00,75.5,66.2,29.81,SE,132,1.0,3.0,73,0.00,,---,0.00,0.00,VWS V14.00,2013-06-09 03:08:00,
2013-06-08 22:12:00,75.5,66.2,29.81,SE,132,0.0,3.0,73,0.00,,---,0.00,0.00,VWS V14.00,2013-06-09 03:12:00,
2013-06-08 22:16:00,75.4,66.5,29.82,SE,132,1.0,3.0,74,0.00,,---,0.00,0.00,VWS V14.00,2013-06-09 03:16:00,
2013-06-08 22:20:00,75.3,66.1,29.82,SE,132,1.0,3.0,73,0.00,,---,0.00,0.00,VWS V14.00,2013-06-09 03:20:00,
2013-06-08 22:24:00,75.2,66.7,29.82,SE,132,1.0,3.0,75,0.00,,---,0.00,0.00,VWS V14.00,2013-06-09 03:24:00,
2013-06-08 22:28:00,75.1,66.6,29.82,SE,132,1.0,3.0,75,0.00,,---,0.00,0.00,VWS V14.00,2013-06-09 03:28:00,
2013-06-08 22:30:00,75.1,66.6,29.82,SE,132,1.0,3.0,75,0.00,,---,0.00,0.00,VWS V14.00,2013-06-09 03:30:00,
2013-06-08 22:32:00,75.0,66.6,29.82,SE,132,0.0,2.0,75,0.00,,---,0.00,0.00,VWS V14.00,2013-06-09 03:32:00,
2013-06-08 22:36:00,74.9,66.4,29.82,SE,132,0.0,2.0,75,0.00,,---,0.00,0.00,VWS V14.00,2013-06-09 03:36:00,
2013-06-08 22:40:00,74.8,66.3,29.82,SE,132,1.0,2.0,75,0.00,,---,0.00,0.00,VWS V14.00,2013-06-09 03:40:00,
2013-06-08 22:44:00,74.6,66.5,29.82,SE,132,1.0,2.0,76,0.00,,---,0.00,0.00,VWS V14.00,2013-06-09 03:44:00,
2013-06-08 22:48:00,74.5,66.4,29.82,SE,132,1.0,2.0,76,0.00,,---,0.00,0.00,VWS V14.00,2013-06-09 03:48:00,
2013-06-08 22:52:00,74.4,66.7,29.82,SE,132,2.0,2.0,77,0.00,,---,0.00,0.00,VWS V14.00,2013-06-09 03:52:00,
2013-06-08 22:56:00,74.3,66.2,29.82,SE,132,0.0,2.0,76,0.00,,---,0.00,0.00,VWS V14.00,2013-06-09 03:56:00,
2013-06-08 23:00:00,74.2,66.5,29.83,SE,132,0.0,2.0,77,0.00,,---,0.00,0.00,VWS V14.00,2013-06-09 04:00:00,
2013-06-08 23:04:00,74.0,66.3,29.83,SE,132,0.0,0.0,77,0.00,,---,0.00,0.00,VWS V14.00,2013-06-09 04:04:00,
2013-06-08 23:08:00,73.9,65.9,29.83,SE,132,0.0,0.0,76,0.00,,---,0.00,0.00,VWS V14.00,2013-06-09 04:08:00,
2013-06-08 23:12:00,73.7,66.1,29.83,SE,134,3.0,3.0,77,0.00,,---,0.00,0.00,VWS V14.00,2013-06-09 04:12:00,
2013-06-08 23:16:00,73.5,66.2,29.82,SE,136,2.0,4.0,78,0.00,,---,0.00,0.00,VWS V14.00,2013-06-09 04:16:00,
2013-06-08 23:20:00,73.3,66.0,29.82,SE,136,2.0,4.0,78,0.00,,---,0.00,0.00,VWS V14.00,2013-06-09 04:20:00,
2013-06-08 23:24:00,73.1,65.8,29.82,SE,139,1.0,4.0,78,0.00,,---,0.00,0.00,VWS V14.00,2013-06-09 04:24:00,
2013-06-08 23:28:00,72.9,66.0,29.82,SE,140,1.0,4.0,79,0.00,,---,0.00,0.00,VWS V14.00,2013-06-09 04:28:00,
2013-06-08 23:30:00,72.8,65.9,29.82,SE,140,2.0,4.0,79,0.00,,---,0.00,0.00,VWS V14.00,2013-06-09 04:30:00,
2013-06-08 23:32:00,72.6,65.7,29.82,SE,141,2.0,3.0,79,0.00,,---,0.00,0.00,VWS V14.00,2013-06-09 04:32:00,
2013-06-08 23:37:00,72.4,65.5,29.82,SE,143,3.0,3.0,79,0.00,,---,0.00,0.00,VWS V14.00,2013-06-09 04:37:00,
2013-06-08 23:41:00,72.2,65.7,29.82,SSE,147,4.0,4.0,80,0.00,,---,0.00,0.00,VWS V14.00,2013-06-09 04:41:00,
2013-06-08 23:45:00,72.1,65.9,29.82,SE,146,3.0,4.0,81,0.00,,---,0.00,0.00,VWS V14.00,2013-06-09 04:45:00,
2013-06-08 23:49:00,72.0,65.5,29.82,SE,146,3.0,4.0,80,0.00,,---,0.00,0.00,VWS V14.00,2013-06-09 04:49:00,
2013-06-08 23:53:00,72.0,65.5,29.82,SE,146,3.0,4.0,80,0.00,,---,0.00,0.00,VWS V14.00,2013-06-09 04:53:00,
2013-06-08 23:57:00,71.9,65.4,29.82,SE,146,2.0,4.0,80,0.00,,---,0.00,0.00,VWS V14.00,2013-06-09 04:57:00,